"Pseudo-MPEC" for P222fzL

Created 2024 Dec 1 21:31:24 UT using Find_Orb

Click here for an explanation of pseudo-MPECs

 
 Astrometry: 
     P222fzL* C2024 11 23.41941704 55 47.639+03 31 32.42   ~BNJ2 21.52wXNEOCPF52
     P222fzL  C2024 11 23.43090004 55 46.724+03 30 29.36   ~BNJ2 21.45wXNEOCPF52
     P222fzL  C2024 11 23.45390504 55 44.902+03 28 23.44   ~BNJ2 21.73wXNEOCPF52

Station data:
(F52) Pan-STARRS 2, Haleakala  (N20.707382 W156.255910)  US/Hawaii.
   Observers J. Bulger, T. Dukes, T. Lowe, A. Schultz, M. Willman. Measurers
   K. Chambers, S. Chastel, T. de Boer, L. Denneau, J. Fairlamb, H.
   Flewelling, M. Huber, C.-C. Lin, E. Magnier, Y. Ramanjooloo, R. Wainscoat,
   R. Weryk. 1.8-m Ritchey-Chrétien + CCD.

Orbital elements:  P222fzL
   Perihelion 2025 Jan 29.23576 +/- 51.2 TT =  5:39:29 (JD 2460704.73576)
Epoch 2024 Nov 23.0 TT = JDT 2460637.5   Earth MOID: 0.1224   Ve: 0.0028
M 332.90063769 +/- 28               Ma: 0.0230                   AutoNEOCP
n   0.40304983 +/- 0.316            Peri.  304.31799 +/- 100
a   1.81508466 +/- 0.948            Node   227.97513 +/- 52
e   0.6875624 +/- 0.272             Incl.   13.90403 +/- 15
P   2.445/893.173d         H 23.10  G  0.15   U 12.0  SR
q 0.56710053 +/- 0.321    Q 3.06306879 +/- 29             (J2000 ecliptic)
From 3 observations 2024 Nov. 23 (49.7 min); mean residual 0".08
Residuals in arcseconds: 
241123 F52  .05+  .09+    241123 F52  .07-  .13-    241123 F52  .02+  .04+    

Ephemerides (geocentric):
Date (UTC) HH   RA             Dec           delta  r     elong  mag " sig PA
---- --------  ------------   ------------  ------ ------ -----  --- --------
2024 12 01 22  04 40 03.240   -15 38 04.91  .16600 1.1221 142.4 20.8  46d  95
2024 12 01 23  04 39 55.878   -15 46 07.53  .16567 1.1216 142.3 20.8  47d  95
2024 12 02 00  04 39 48.477   -15 54 11.89  .16535 1.1211 142.1 20.8  47d  95
2024 12 02 01  04 39 41.037   -16 02 17.99  .16503 1.1206 142.0 20.8  47d  95
2024 12 02 02  04 39 33.557   -16 10 25.83  .16471 1.1201 141.8 20.8  47d  95
2024 12 02 03  04 39 26.038   -16 18 35.43  .16439 1.1196 141.7 20.8  47d  95
2024 12 02 04  04 39 18.479   -16 26 46.78  .16407 1.1191 141.6 20.8  48d  96
2024 12 02 05  04 39 10.879   -16 34 59.89  .16375 1.1186 141.4 20.8  48d  96
2024 12 02 06  04 39 03.238   -16 43 14.76  .16344 1.1181 141.3 20.8  48d  96
2024 12 02 07  04 38 55.557   -16 51 31.39  .16312 1.1176 141.1 20.8  48d  96
2024 12 02 08  04 38 47.834   -16 59 49.79  .16281 1.1171 141.0 20.8  48d  96
2024 12 02 09  04 38 40.070   -17 08 09.97  .16249 1.1166 140.9 20.8  49d  96
2024 12 02 10  04 38 32.264   -17 16 31.91  .16218 1.1161 140.7 20.8  49d  97
2024 12 02 11  04 38 24.416   -17 24 55.64  .16187 1.1157 140.6 20.8  49d  97
2024 12 02 12  04 38 16.526   -17 33 21.15  .16156 1.1152 140.4 20.8  50d  98
2024 12 02 13  04 38 08.593   -17 41 48.44  .16125 1.1147 140.3 20.8  51d  98
2024 12 02 14  04 38 00.617   -17 50 17.52  .16094 1.1142 140.1 20.8  52d  98
2024 12 02 15  04 37 52.597   -17 58 48.39  .16064 1.1137 140.0 20.8  52d  98
2024 12 02 16  04 37 44.534   -18 07 21.05  .16033 1.1132 139.8 20.8  52d  98
2024 12 02 17  04 37 36.427   -18 15 55.51  .16003 1.1127 139.7 20.8  53d  98
2024 12 02 18  04 37 28.276   -18 24 31.77  .15972 1.1122 139.5 20.8  53d  98
2024 12 02 19  04 37 20.080   -18 33 09.83  .15942 1.1117 139.4 20.8  53d  98
2024 12 02 20  04 37 11.839   -18 41 49.69  .15912 1.1112 139.2 20.8  53d  98
2024 12 02 21  04 37 03.552   -18 50 31.36  .15882 1.1107 139.1 20.8  53d  98
2024 12 02 22  04 36 55.221   -18 59 14.84  .15852 1.1102 138.9 20.8  53d  98
2024 12 02 23  04 36 46.843   -19 08 00.13  .15822 1.1097 138.8 20.8  53d  98
2024 12 03 00  04 36 38.419   -19 16 47.24  .15793 1.1092 138.6 20.8  53d  98
2024 12 03 01  04 36 29.948   -19 25 36.16  .15763 1.1088 138.5 20.8  53d  98
2024 12 03 02  04 36 21.430   -19 34 26.90  .15734 1.1083 138.3 20.8  53d  97
2024 12 03 03  04 36 12.865   -19 43 19.45  .15704 1.1078 138.2 20.8  53d  97
2024 12 03 04  04 36 04.252   -19 52 13.83  .15675 1.1073 138.0 20.8  53d  97
2024 12 03 05  04 35 55.591   -20 01 10.04  .15646 1.1068 137.9 20.8  53d  97
2024 12 03 06  04 35 46.882   -20 10 08.07  .15617 1.1063 137.7 20.8  53d  97
2024 12 03 07  04 35 38.123   -20 19 07.92  .15588 1.1058 137.5 20.8  53d  97
2024 12 03 08  04 35 29.316   -20 28 09.61  .15560 1.1053 137.4 20.8  53d  97
2024 12 03 09  04 35 20.459   -20 37 13.12  .15531 1.1048 137.2 20.8  53d  97
2024 12 03 10  04 35 11.552   -20 46 18.47  .15503 1.1043 137.1 20.8  53d  97
2024 12 03 11  04 35 02.594   -20 55 25.65  .15474 1.1038 136.9 20.8  53d  97
2024 12 03 12  04 34 53.586   -21 04 34.67  .15446 1.1033 136.8 20.8  53d  97
2024 12 03 13  04 34 44.527   -21 13 45.52  .15418 1.1028 136.6 20.8  53d  97
2024 12 03 14  04 34 35.416   -21 22 58.20  .15390 1.1023 136.4 20.8  53d  97
2024 12 03 15  04 34 26.254   -21 32 12.72  .15362 1.1018 136.3 20.8  53d  97
2024 12 03 16  04 34 17.039   -21 41 29.08  .15334 1.1013 136.1 20.8  53d  97
2024 12 03 17  04 34 07.771   -21 50 47.28  .15307 1.1008 135.9 20.8  53d  97
2024 12 03 18  04 33 58.450   -22 00 07.32  .15279 1.1003 135.8 20.8  53d  97
2024 12 03 19  04 33 49.075   -22 09 29.20  .15252 1.0999 135.6 20.8  52d  99
2024 12 03 20  04 33 39.647   -22 18 52.92  .15225 1.0994 135.4 20.8  52d  99
2024 12 03 21  04 33 30.164   -22 28 18.47  .15197 1.0989 135.3 20.8  52d  99